When you browse on this site, cookies collect data to enhance your experience and personalize the content and advertising you see.
Visit our Privacy Policy to learn more. By continuing to use the site, you agree to this use of cookies and data.
  • en Suisse
  • Liste des pays
  • À 7 jours
  • Température de l'eau
  • Carte météo
  • Widgets météo
  • user-avatar
    Se connecter

    Météo par heure à Winchester

    Ce jour, 29 Janvier, Mercredi

    Heure Température Précipitation Vent Pression Humidité
    00:00 +1°C° 0 mm 5 m/s 748 mmHg 83%
    01:00 +1°C° 0 mm 6 m/s 748 mmHg 84%
    02:00 +1°C° 0 mm 6 m/s 748 mmHg 84%
    03:00 +1°C° 0 mm 6 m/s 749 mmHg 84%
    04:00 0°C° 0 mm 5 m/s 749 mmHg 85%
    05:00 0°C° 0 mm 5 m/s 750 mmHg 87%
    06:00 0°C° 0 mm 5 m/s 750 mmHg 88%
    07:00 0°C° 0 mm 4 m/s 751 mmHg 88%
    08:00 +1°C° 0 mm 4 m/s 751 mmHg 87%
    09:00 +1°C° 0 mm 4 m/s 752 mmHg 87%
    10:00 +4°C° 0 mm 4 m/s 752 mmHg 83%
    11:00 +5°C° 0 mm 5 m/s 752 mmHg 78%
    12:00 +6°C° 0 mm 5 m/s 753 mmHg 74%
    13:00 +7°C° 0 mm 5 m/s 753 mmHg 75%
    14:00 +7°C° 0 mm 5 m/s 752 mmHg 76%
    15:00 +7°C° 0 mm 6 m/s 752 mmHg 77%
    16:00 +5°C° 0 mm 6 m/s 752 mmHg 81%
    17:00 +5°C° 0 mm 6 m/s 752 mmHg 84%
    18:00 +4°C° 0 mm 6 m/s 752 mmHg 87%
    19:00 +5°C° 0 mm 5 m/s 752 mmHg 88%
    20:00 +5°C° 0 mm 5 m/s 752 mmHg 89%
    21:00 +6°C° 0 mm 5 m/s 752 mmHg 90%
    22:00 +6°C° 0 mm 5 m/s 752 mmHg 92%
    23:00 +5°C° 0 mm 4 m/s 751 mmHg 93%

    Demain, 30 Janvier, Jeudi

    Heure Température Précipitation Vent Pression Humidité
    00:00 +5°C° 0 mm 4 m/s 751 mmHg 95%
    01:00 +5°C° 0 mm 3 m/s 751 mmHg 96%
    02:00 +5°C° 0 mm 3 m/s 750 mmHg 97%
    03:00 +5°C° 0 mm 3 m/s 750 mmHg 98%
    04:00 +7°C° 0 mm 3 m/s 749 mmHg 98%
    05:00 +7°C° 0 mm 3 m/s 748 mmHg 98%
    06:00 +8°C° 0 mm 3 m/s 748 mmHg 98%
    07:00 +8°C° 0 mm 3 m/s 747 mmHg 98%
    08:00 +8°C° 0 mm 3 m/s 747 mmHg 98%
    09:00 +8°C° 0 mm 3 m/s 747 mmHg 98%
    10:00 +9°C° 0.1 mm 3 m/s 747 mmHg 97%
    11:00 +10°C° 0.1 mm 3 m/s 747 mmHg 96%
    12:00 +11°C° 0.1 mm 3 m/s 747 mmHg 95%
    13:00 +11°C° 0 mm 4 m/s 746 mmHg 95%
    14:00 +10°C° 0 mm 5 m/s 746 mmHg 94%
    15:00 +10°C° 0 mm 6 m/s 746 mmHg 94%
    16:00 +10°C° 0 mm 6 m/s 746 mmHg 94%
    17:00 +10°C° 0 mm 5 m/s 747 mmHg 93%
    18:00 +10°C° 0 mm 5 m/s 747 mmHg 93%
    19:00 +10°C° 0 mm 5 m/s 747 mmHg 93%
    20:00 +9°C° 0 mm 5 m/s 748 mmHg 92%
    21:00 +9°C° 0 mm 5 m/s 748 mmHg 92%
    22:00 +9°C° 0 mm 5 m/s 749 mmHg 92%
    23:00 +9°C° 0 mm 5 m/s 749 mmHg 91%

    Après-demain, 31 Janvier, Vendredi

    Heure Température Précipitation Vent Pression Humidité
    00:00 +9°C° 0 mm 5 m/s 750 mmHg 91%
    01:00 +8°C° 0 mm 5 m/s 750 mmHg 92%
    02:00 +8°C° 0 mm 4 m/s 750 mmHg 92%
    03:00 +7°C° 0 mm 4 m/s 750 mmHg 93%
    04:00 +7°C° 0 mm 4 m/s 750 mmHg 93%
    05:00 +7°C° 0 mm 5 m/s 750 mmHg 93%
    06:00 +7°C° 0 mm 5 m/s 750 mmHg 94%
    07:00 +7°C° 0 mm 5 m/s 750 mmHg 93%
    08:00 +8°C° 0 mm 6 m/s 750 mmHg 92%
    09:00 +8°C° 0 mm 6 m/s 750 mmHg 91%
    10:00 +9°C° 0 mm 7 m/s 750 mmHg 91%
    11:00 +10°C° 0 mm 7 m/s 750 mmHg 92%
    12:00 +10°C° 0 mm 7 m/s 750 mmHg 92%
    13:00 +10°C° 0 mm 7 m/s 750 mmHg 93%
    14:00 +10°C° 0 mm 7 m/s 749 mmHg 93%
    15:00 +10°C° 0 mm 7 m/s 749 mmHg 94%
    16:00 +10°C° 0 mm 7 m/s 748 mmHg 94%
    17:00 +10°C° 0 mm 7 m/s 748 mmHg 95%
    18:00 +10°C° 0 mm 6 m/s 748 mmHg 95%
    19:00 +10°C° 0.1 mm 6 m/s 748 mmHg 96%
    20:00 +10°C° 0.1 mm 6 m/s 747 mmHg 96%
    21:00 +10°C° 0.1 mm 5 m/s 747 mmHg 97%
    22:00 +10°C° 0.1 mm 5 m/s 747 mmHg 97%
    23:00 +10°C° 0.1 mm 6 m/s 746 mmHg 96%

    1 Février, Samedi

    Heure Température Précipitation Vent Pression Humidité
    00:00 +10°C° 0.1 mm 6 m/s 746 mmHg 96%
    01:00 +10°C° 0 mm 6 m/s 745 mmHg 96%
    02:00 +9°C° 0 mm 6 m/s 745 mmHg 95%
    03:00 +9°C° 0 mm 6 m/s 744 mmHg 95%
    04:00 +9°C° 0.1 mm 6 m/s 744 mmHg 93%
    05:00 +9°C° 0.1 mm 6 m/s 744 mmHg 91%
    06:00 +9°C° 0.1 mm 7 m/s 744 mmHg 89%
    07:00 +8°C° 0.2 mm 7 m/s 745 mmHg 86%
    08:00 +6°C° 0.2 mm 7 m/s 746 mmHg 83%
    09:00 +5°C° 0.2 mm 8 m/s 747 mmHg 80%
    10:00 +6°C° 0 mm 8 m/s 748 mmHg 76%
    11:00 +6°C° 0 mm 9 m/s 749 mmHg 71%
    12:00 +7°C° 0 mm 10 m/s 750 mmHg 67%
    13:00 +7°C° 0 mm 10 m/s 751 mmHg 67%
    14:00 +7°C° 0 mm 10 m/s 752 mmHg 67%
    15:00 +6°C° 0 mm 9 m/s 752 mmHg 67%
    16:00 +6°C° 0 mm 8 m/s 753 mmHg 70%
    17:00 +5°C° 0 mm 8 m/s 754 mmHg 74%
    18:00 +4°C° 0 mm 7 m/s 754 mmHg 77%
    19:00 +4°C° 0 mm 6 m/s 755 mmHg 79%
    20:00 +3°C° 0 mm 5 m/s 755 mmHg 81%
    21:00 +3°C° 0 mm 5 m/s 756 mmHg 84%
    22:00 +4°C° 0 mm 4 m/s 756 mmHg 83%
    23:00 +5°C° 0 mm 4 m/s 756 mmHg 83%

    2 Février, Dimanche

    Heure Température Précipitation Vent Pression Humidité
    00:00 +5°C° 0 mm 4 m/s 756 mmHg 83%
    01:00 +6°C° 0.3 mm 5 m/s 754 mmHg 85%
    02:00 +5°C° 0.3 mm 6 m/s 753 mmHg 87%
    03:00 +5°C° 0.3 mm 7 m/s 752 mmHg 88%
    04:00 +6°C° 2.4 mm 7 m/s 751 mmHg 91%
    05:00 +7°C° 2.4 mm 8 m/s 750 mmHg 94%
    06:00 +8°C° 2.4 mm 9 m/s 749 mmHg 96%
    07:00 +10°C° 0.4 mm 8 m/s 750 mmHg 95%
    08:00 +11°C° 0.4 mm 8 m/s 750 mmHg 94%
    09:00 +11°C° 0.4 mm 8 m/s 750 mmHg 92%
    10:00 +12°C° 0 mm 8 m/s 751 mmHg 90%
    11:00 +12°C° 0 mm 8 m/s 752 mmHg 87%
    12:00 +12°C° 0 mm 8 m/s 753 mmHg 84%
    13:00 +12°C° 0 mm 7 m/s 753 mmHg 83%
    14:00 +11°C° 0 mm 6 m/s 754 mmHg 82%
    15:00 +12°C° 0 mm 5 m/s 754 mmHg 82%
    16:00 +10°C° 0 mm 5 m/s 754 mmHg 85%
    17:00 +10°C° 0 mm 4 m/s 755 mmHg 89%
    18:00 +8°C° 0 mm 4 m/s 755 mmHg 93%
    19:00 +9°C° 0 mm 3 m/s 755 mmHg 94%
    20:00 +8°C° 0 mm 3 m/s 755 mmHg 95%
    21:00 +8°C° 0 mm 3 m/s 755 mmHg 96%
    22:00 +8°C° 0.8 mm 2 m/s 755 mmHg 97%
    23:00 +9°C° 0.8 mm 2 m/s 755 mmHg 97%

    3 Février, Lundi

    Heure Température Précipitation Vent Pression Humidité
    00:00 +9°C° 0.8 mm 2 m/s 754 mmHg 98%
    01:00 +10°C° 0.5 mm 4 m/s 754 mmHg 97%
    02:00 +9°C° 0.5 mm 5 m/s 753 mmHg 96%
    03:00 +10°C° 0.5 mm 7 m/s 753 mmHg 95%
    04:00 +10°C° 0.1 mm 7 m/s 752 mmHg 94%
    05:00 +10°C° 0.1 mm 7 m/s 751 mmHg 92%
    06:00 +10°C° 0.1 mm 8 m/s 750 mmHg 91%
    07:00 +10°C° 0.2 mm 9 m/s 750 mmHg 91%
    08:00 +9°C° 0.2 mm 10 m/s 749 mmHg 92%
    09:00 +11°C° 0.2 mm 11 m/s 749 mmHg 92%
    10:00 +11°C° 0.1 mm 10 m/s 749 mmHg 89%
    11:00 +11°C° 0.1 mm 10 m/s 750 mmHg 85%
    12:00 +11°C° 0.1 mm 10 m/s 750 mmHg 81%
    13:00 +11°C° 0.1 mm 10 m/s 750 mmHg 80%
    14:00 +9°C° 0.1 mm 11 m/s 750 mmHg 78%
    15:00 +9°C° 0.1 mm 11 m/s 750 mmHg 77%
    16:00 +8°C° 0 mm 11 m/s 750 mmHg 78%
    17:00 +7°C° 0 mm 10 m/s 750 mmHg 80%
    18:00 +7°C° 0 mm 10 m/s 750 mmHg 81%
    19:00 +6°C° 0 mm 10 m/s 750 mmHg 79%
    20:00 +6°C° 0 mm 9 m/s 750 mmHg 78%
    21:00 +5°C° 0 mm 9 m/s 751 mmHg 77%
    22:00 +5°C° 0 mm 9 m/s 751 mmHg 77%
    23:00 +6°C° 0 mm 9 m/s 752 mmHg 78%
    Voir plus